| time (UTC) | temp F | wind direction | speed MPH | gust MPH | rain 1hr in | rain 24hr in | rain mn in | humidity % | barometer mb |
| 20260507055710 | 57 | 247 | 0.0 | 0.0 | 0.00 | 0.10 | 0.00 | 88 | 1006.0 |
| 20260507053710 | 57 | 247 | 0.0 | 2.0 | 0.00 | 0.10 | 0.00 | 88 | 1005.8 |
| 20260507052710 | 57 | 268 | 0.0 | 3.0 | 0.00 | 0.10 | 0.00 | 88 | 1005.9 |
| 20260507050710 | 57 | 177 | 1.0 | 3.0 | 0.00 | 0.10 | 0.00 | 88 | 1006.3 |
| 20260507042710 | 57 | 234 | 0.0 | 2.0 | 0.00 | 0.10 | 0.00 | 88 | 1006.1 |
| 20260507040711 | 57 | 247 | 0.0 | 5.0 | 0.00 | 0.10 | 0.00 | 88 | 1006.0 |
| 20260507032710 | 57 | 273 | 1.0 | 7.0 | 0.00 | 0.10 | 0.10 | 88 | 1006.3 |
| 20260507030710 | 57 | 268 | 0.0 | 3.0 | 0.00 | 0.10 | 0.10 | 88 | 1006.0 |
| 20260507025711 | 57 | 271 | 1.0 | 5.0 | 0.00 | 0.10 | 0.10 | 88 | 1005.8 |
| 20260507024710 | 57 | 215 | 2.0 | 6.0 | 0.05 | 0.10 | 0.10 | 88 | 1005.8 |
| 20260507022710 | 57 | 227 | 3.0 | 8.0 | 0.05 | 0.10 | 0.10 | 88 | 1005.9 |
| 20260507020711 | 57 | 251 | 2.0 | 5.0 | 0.05 | 0.10 | 0.10 | 88 | 1006.4 |
| 20260507014710 | 57 | 220 | 4.0 | 7.0 | 0.00 | 0.05 | 0.05 | 88 | 1006.5 |
| 20260507013711 | 57 | 221 | 3.0 | 8.0 | 0.00 | 0.05 | 0.05 | 88 | 1006.7 |
| 20260507011711 | 57 | 210 | 3.0 | 12.0 | 0.00 | 0.05 | 0.05 | 88 | 1006.7 |
| 20260507003712 | 58 | 224 | 3.0 | 10.0 | 0.00 | 0.05 | 0.05 | 88 | 1006.8 |
| 20260507000710 | 58 | 228 | 2.0 | 7.0 | 0.00 | 0.05 | 0.05 | 88 | 1006.8 |
| 20260506234710 | 58 | 242 | 3.0 | 12.0 | 0.05 | 0.05 | 0.05 | 88 | 1006.8 |
| 20260506233710 | 58 | 208 | 4.0 | 8.0 | 0.05 | 0.05 | 0.05 | 88 | 1006.8 |
| 20260506232710 | 58 | 208 | 3.0 | 8.0 | 0.05 | 0.05 | 0.05 | 88 | 1006.8 |
| 20260506231711 | 58 | 240 | 3.0 | 7.0 | 0.05 | 0.05 | 0.05 | 88 | 1006.8 |
| 20260506230710 | 58 | 212 | 3.0 | 13.0 | 0.05 | 0.05 | 0.05 | 87 | 1006.8 |
| 20260506225711 | 59 | 209 | 4.0 | 7.0 | 0.00 | 0.00 | 0.00 | 87 | 1006.9 |
| 20260506222713 | 59 | 219 | 5.0 | 9.0 | 0.00 | 0.00 | 0.00 | 86 | 1007.2 |
| 20260506213710 | 62 | 236 | 4.0 | 9.0 | 0.00 | 0.00 | 0.00 | 83 | 1007.3 |
| 20260506210711 | 63 | 220 | 6.0 | 12.0 | 0.00 | 0.00 | 0.00 | 81 | 1007.5 |
| 20260506205711 | 63 | 234 | 5.0 | 14.0 | 0.00 | 0.00 | 0.00 | 81 | 1007.5 |
| 20260506203711 | 62 | 249 | 5.0 | 12.0 | 0.00 | 0.00 | 0.00 | 80 | 1007.7 |
| 20260506202710 | 63 | 215 | 5.0 | 13.0 | 0.00 | 0.00 | 0.00 | 79 | 1007.8 |
| 20260506201711 | 64 | 228 | 3.0 | 8.0 | 0.00 | 0.00 | 0.00 | 77 | 1007.9 |
| 20260506195711 | 65 | 264 | 6.0 | 12.0 | 0.00 | 0.00 | 0.00 | 73 | 1008.1 |
| 20260506194710 | 65 | 225 | 4.0 | 8.0 | 0.00 | 0.00 | 0.00 | 73 | 1008.2 |
| 20260506191712 | 65 | 231 | 6.0 | 15.0 | 0.00 | 0.00 | 0.00 | 72 | 1008.2 |
| 20260506185711 | 66 | 223 | 5.0 | 12.0 | 0.00 | 0.00 | 0.00 | 70 | 1008.3 |
| 20260506183711 | 67 | 207 | 6.0 | 14.0 | 0.00 | 0.00 | 0.00 | 69 | 1008.4 |
| 20260506182710 | 67 | 225 | 8.0 | 16.0 | 0.00 | 0.00 | 0.00 | 68 | 1008.5 |
| 20260506180751 | 68 | 202 | 9.0 | 17.0 | 0.00 | 0.00 | 0.00 | 65 | 1008.8 |
| 20260506174710 | 70 | 225 | 5.0 | 14.0 | 0.00 | 0.00 | 0.00 | 64 | 1009.2 |
| 20260506173710 | 70 | 212 | 7.0 | 14.0 | 0.00 | 0.00 | 0.00 | 64 | 1009.2 |
| 20260506172711 | 70 | 208 | 7.0 | 17.0 | 0.00 | 0.00 | 0.00 | 63 | 1009.1 |
| 20260506171710 | 70 | 232 | 6.0 | 16.0 | 0.00 | 0.00 | 0.00 | 65 | 1009.2 |
| 20260506170710 | 69 | 252 | 7.0 | 18.0 | 0.00 | 0.00 | 0.00 | 66 | 1009.4 |
| 20260506165710 | 69 | 224 | 6.0 | 17.0 | 0.00 | 0.00 | 0.00 | 66 | 1009.4 |
| 20260506164710 | 69 | 196 | 9.0 | 16.0 | 0.00 | 0.00 | 0.00 | 65 | 1009.5 |
| 20260506155710 | 71 | 192 | 6.0 | 15.0 | 0.00 | 0.00 | 0.00 | 62 | 1010.0 |
| 20260506153710 | 70 | 260 | 6.0 | 13.0 | 0.00 | 0.00 | 0.00 | 65 | 1010.6 |
| 20260506150710 | 70 | 198 | 7.0 | 14.0 | 0.00 | 0.00 | 0.00 | 64 | 1010.5 |
| 20260506135712 | 69 | 220 | 7.0 | 16.0 | 0.00 | 0.00 | 0.00 | 67 | 1010.8 |
| 20260506134714 | 68 | 216 | 6.0 | 13.0 | 0.00 | 0.00 | 0.00 | 69 | 1010.9 |
| 20260506133710 | 68 | 225 | 6.0 | 14.0 | 0.00 | 0.00 | 0.00 | 70 | 1011.1 |
| 20260506131710 | 66 | 245 | 3.0 | 10.0 | 0.00 | 0.00 | 0.00 | 74 | 1010.9 |
| 20260506125710 | 65 | 258 | 4.0 | 10.0 | 0.00 | 0.00 | 0.00 | 78 | 1010.9 |
| 20260506122710 | 62 | 194 | 5.0 | 13.0 | 0.00 | 0.00 | 0.00 | 82 | 1011.2 |
| 20260506120710 | 62 | 210 | 5.0 | 8.0 | 0.00 | 0.00 | 0.00 | 83 | 1011.4 |
| 20260506112711 | 60 | 201 | 5.0 | 12.0 | 0.00 | 0.00 | 0.00 | 85 | 1011.6 |
| 20260506105711 | 59 | 217 | 4.0 | 9.0 | 0.00 | 0.00 | 0.00 | 85 | 1011.7 |
| 20260506103709 | 59 | 216 | 5.0 | 9.0 | 0.00 | 0.00 | 0.00 | 85 | 1011.6 |
| 20260506100710 | 58 | 215 | 5.0 | 13.0 | 0.00 | 0.00 | 0.00 | 86 | 1011.3 |
| 20260506094710 | 58 | 233 | 4.0 | 12.0 | 0.00 | 0.00 | 0.00 | 86 | 1011.3 |
| 20260506092710 | 58 | 212 | 4.0 | 8.0 | 0.00 | 0.00 | 0.00 | 85 | 1011.3 |
| 20260506091710 | 58 | 194 | 3.0 | 8.0 | 0.00 | 0.00 | 0.00 | 85 | 1011.4 |
| 20260506084710 | 58 | 229 | 6.0 | 13.0 | 0.00 | 0.00 | 0.00 | 85 | 1011.4 |
| 20260506081710 | 59 | 246 | 5.0 | 13.0 | 0.00 | 0.00 | 0.00 | 84 | 1011.4 |
| 20260506071713 | 59 | 225 | 3.0 | 9.0 | 0.00 | 0.00 | 0.00 | 83 | 1011.4 |
| 20260506061710 | 60 | 203 | 5.0 | 13.0 | 0.00 | 0.00 | 0.00 | 81 | 1011.1 |
| 20260506060710 | 60 | 220 | 7.0 | 13.0 | 0.00 | 0.00 | 0.00 | 80 | 1011.3 |